Location: Sevilla
(37.3933°N, 5.9839°W)
Time: 12:09:04
(UTC+02:00)

S-56A Canister/Altair - Pass Details

Date: 25 June 2024
Orbit: 638 x 2488 km, 38.9° (Epoch: 14 July)

Event Time Altitude Azimuth Distance (km) Brightness Sun altitude
Rises 04:21:39 0° 289° (WNW) 5,318 11.7 -23.5°
Reaches altitude 10° 04:24:56 10° 284° (WNW) 4,525 11.3 -23.2°
Maximum altitude 04:37:27 52° 214° (SW) 2,848 9.9 -21.9°
Drops below altitude 10° 04:51:42 10° 144° (SE) 5,082 11.5 -20.3°
Sets 04:55:39 0° 139° (SE) 5,995 11.9 -19.9°
